Weather History for Atlanta Fulton, GA

Change the Weather History Date:

Tuesday, March 18, 2014

  Actual Average Record
Temperature  
Mean Temperature 44 °F 54 °F  
Max Temperature 51 °F 66 °F 84 °F (2012)
Min Temperature 37 °F 42 °F 30 °F (2007)
Degree Days  
Heating Degree Days 21 11  
Month to date heating degree days 247 239  
Since 1 July heating degree days 2814 2579  
Cooling Degree Days 0 0  
Month to date cooling degree days 0 0  
Year to date cooling degree days 0 0  
Moisture  
Dew Point 37 °F    
Average Humidity 79    
Maximum Humidity 92    
Minimum Humidity 66    
Precipitation  
Precipitation 0.00 in 0.17 in 1.02 in (1958)
Month to date precipitation 2.49 2.91  
Year to date precipitation 8.16 12.08  
Sea Level Pressure  
Sea Level Pressure 29.95 in    
Wind  
Wind Speed 7 mph (ENE)    
Max Wind Speed 13 mph    
Max Gust Speed 18 mph    
Visibility 9 miles    
Events      
T = Trace of Precipitation, MM = Missing Value Source: NWS Daily Summary

Daily Weather History Graph

Daily Weather History Graph

Search for Another Location

Airport:

Trip Planner

Search our weather history database for the weather conditions in past years. The results will help you decide how hot, cold, wet, or windy it might be!

Date:

Astronomy

Mar. 18, 2014 Rise Set
Actual Time 7:44 AM EDT 7:48 PM EDT
Civil Twilight 7:19 AM EDT 8:13 PM EDT
Nautical Twilight 6:50 AM EDT 8:42 PM EDT
Astronomical Twilight 6:21 AM EDT 9:11 PM EDT
Moon 9:56 PM EDT (3/18) 8:39 AM EDT (3/18)
Length of Visible Light 12h 53m
Length of Day
12h 03m
Waning Gibbous, 96% of the Moon is Illuminated
Mar 18
Waning Gibbous
Mar 23
Last Quarter
Mar 30
New
Apr 7
First Quarter
Apr 15
Full

Hourly Weather History & Observations

Time (EDT) Temp. Windchill Dew Point Humidity Pressure Visibility Wind Dir Wind Speed Gust Speed Precip Events Conditions
12:43 AM 39.2 °F 33.6 °F 35.6 °F 87% 29.86 in 10.0 mi ENE 8.1 mph - N/A   Overcast
12:53 AM 39.9 °F 35.1 °F 36.0 °F 86% 29.87 in 10.0 mi East 6.9 mph - N/A   Overcast
1:48 AM 39.2 °F 33.6 °F 35.6 °F 87% 29.86 in 10.0 mi ENE 8.1 mph - N/A   Overcast
1:53 AM 39.9 °F 35.8 °F 37.0 °F 89% 29.87 in 10.0 mi ENE 5.8 mph - N/A   Overcast
2:53 AM 37.9 °F 30.9 °F 36.0 °F 93% 29.86 in 6.0 mi NNE 10.4 mph - N/A   Overcast
3:29 AM 37.4 °F 30.8 °F 35.6 °F 93% 29.84 in 8.0 mi ENE 9.2 mph - N/A   Overcast
3:42 AM 37.4 °F 30.8 °F 35.6 °F 93% 29.84 in 6.0 mi ENE 9.2 mph - N/A   Overcast
3:53 AM 37.9 °F 32.1 °F 36.0 °F 93% 29.85 in 5.0 mi ENE 8.1 mph - N/A   Overcast
4:53 AM 37.0 °F 31.6 °F 36.0 °F 96% 29.86 in 5.0 mi East 6.9 mph - N/A   Overcast
5:53 AM 37.0 °F 32.4 °F 35.1 °F 93% 29.89 in 4.0 mi NE 5.8 mph - N/A   Overcast
6:53 AM 37.0 °F 31.6 °F 35.1 °F 93% 29.88 in 10.0 mi NE 6.9 mph - N/A   Overcast
7:53 AM 37.0 °F 34.5 °F 35.1 °F 93% 29.90 in 10.0 mi NE 3.5 mph - N/A   Overcast
8:27 AM 37.4 °F 31.4 °F 35.6 °F 93% 29.90 in 10.0 mi ENE 8.1 mph - N/A   Overcast
8:38 AM 37.4 °F 32.8 °F 35.6 °F 93% 29.90 in 10.0 mi ENE 5.8 mph - N/A   Overcast
8:53 AM 39.0 °F 33.4 °F 35.1 °F 86% 29.92 in 10.0 mi East 8.1 mph - N/A   Overcast
9:04 AM 39.2 °F 33.0 °F 35.6 °F 87% 29.92 in 10.0 mi ENE 9.2 mph - N/A   Overcast
9:23 AM 39.2 °F 33.0 °F 35.6 °F 87% 29.93 in 10.0 mi East 9.2 mph - N/A   Overcast
9:53 AM 39.9 °F 35.8 °F 35.1 °F 83% 29.96 in 10.0 mi East 5.8 mph - N/A   Overcast
10:53 AM 41.0 °F 36.4 °F 35.1 °F 79% 30.01 in 10.0 mi East 6.9 mph - N/A   Overcast
11:53 AM 42.1 °F 38.4 °F 37.0 °F 82% 30.04 in 10.0 mi East 5.8 mph - N/A   Overcast
12:39 PM 44.6 °F 39.7 °F 37.4 °F 76% 30.04 in 10.0 mi ESE 9.2 mph - N/A   Overcast
12:53 PM 44.1 °F 40.8 °F 37.0 °F 76% 30.04 in 10.0 mi East 5.8 mph - N/A   Overcast
1:53 PM 46.0 °F 43.9 °F 39.0 °F 76% 30.04 in 10.0 mi NNE 4.6 mph - N/A   Overcast
2:53 PM 46.9 °F - 39.0 °F 74% 30.02 in 10.0 mi NE 8.1 mph - N/A   Overcast
3:53 PM 48.0 °F - 39.9 °F 74% 30.02 in 10.0 mi NE 9.2 mph - N/A   Overcast
4:53 PM 50.0 °F - 39.9 °F 68% 29.99 in 10.0 mi East 8.1 mph - N/A   Overcast
5:53 PM 51.1 °F - 41.0 °F 68% 29.98 in 10.0 mi ENE 11.5 mph - N/A   Overcast
6:53 PM 50.0 °F - 41.0 °F 71% 30.00 in 10.0 mi SE 5.8 mph - N/A   Overcast
7:53 PM 50.0 °F - 42.1 °F 74% 30.01 in 10.0 mi East 5.8 mph - N/A   Overcast
8:53 PM 50.0 °F - 42.1 °F 74% 30.04 in 10.0 mi East 4.6 mph - N/A   Overcast
9:53 PM 50.0 °F - 42.1 °F 74% 30.06 in 10.0 mi ESE 6.9 mph - N/A   Overcast
10:53 PM 50.0 °F - 42.1 °F 74% 30.07 in 10.0 mi Calm Calm - N/A   Overcast
11:53 PM 48.9 °F - 41.0 °F 74% 30.09 in 10.0 mi SE 9.2 mph - N/A   Overcast